Year,Month,Day,Hour,Minute,Value (Times are PST for temperature in C)
2013,05,02,00,00,8.30
2013,05,02,00,01,8.40
2013,05,02,00,02,8.40
2013,05,02,00,03,8.40
2013,05,02,00,04,8.40
2013,05,02,00,05,8.40
2013,05,02,00,06,8.40
2013,05,02,00,07,8.40
2013,05,02,00,08,8.40
2013,05,02,00,09,8.40
2013,05,02,00,10,8.40
2013,05,02,00,11,8.40
2013,05,02,00,12,8.30
2013,05,02,00,13,8.30
2013,05,02,00,14,8.30
2013,05,02,00,15,8.30
2013,05,02,00,16,8.30
2013,05,02,00,17,8.30
2013,05,02,00,18,8.30
2013,05,02,00,19,8.30
2013,05,02,00,20,8.30
2013,05,02,00,21,8.20
2013,05,02,00,22,8.20
2013,05,02,00,23,8.20
2013,05,02,00,24,8.20
2013,05,02,00,25,8.20
2013,05,02,00,26,8.20
2013,05,02,00,27,8.20
2013,05,02,00,28,8.20
2013,05,02,00,29,8.20
2013,05,02,00,30,8.20
2013,05,02,00,31,8.20
2013,05,02,00,32,8.20
2013,05,02,00,33,8.20
2013,05,02,00,34,8.10
2013,05,02,00,35,8.10
2013,05,02,00,36,8.10
2013,05,02,00,37,8.10
2013,05,02,00,38,8.10
2013,05,02,00,39,8.10
2013,05,02,00,40,8.10
2013,05,02,00,41,8.00
2013,05,02,00,42,8.00
2013,05,02,00,43,8.00
2013,05,02,00,44,8.00
2013,05,02,00,45,7.90
2013,05,02,00,46,7.90
2013,05,02,00,47,7.90
2013,05,02,00,48,7.90
2013,05,02,00,49,7.90
2013,05,02,00,50,7.90
2013,05,02,00,51,7.90
2013,05,02,00,52,7.80
2013,05,02,00,53,7.80
2013,05,02,00,54,7.80
2013,05,02,00,55,7.80
2013,05,02,00,56,7.80
2013,05,02,00,57,7.70
2013,05,02,00,58,7.70
2013,05,02,00,59,7.70
2013,05,02,01,00,7.70
2013,05,02,01,01,7.70
2013,05,02,01,02,7.60
2013,05,02,01,03,7.60
2013,05,02,01,04,7.60
2013,05,02,01,05,7.60
2013,05,02,01,06,7.60
2013,05,02,01,07,7.50
2013,05,02,01,08,7.50
2013,05,02,01,09,7.50
2013,05,02,01,10,7.50
2013,05,02,01,11,7.40
2013,05,02,01,12,7.40
2013,05,02,01,13,7.40
2013,05,02,01,14,7.40
2013,05,02,01,15,7.40
2013,05,02,01,16,7.40
2013,05,02,01,17,7.30
2013,05,02,01,18,7.30
2013,05,02,01,19,7.30
2013,05,02,01,20,7.30
2013,05,02,01,21,7.30
2013,05,02,01,22,7.30
2013,05,02,01,23,7.30
2013,05,02,01,24,7.30
2013,05,02,01,25,7.30
2013,05,02,01,26,7.30
2013,05,02,01,27,7.30
2013,05,02,01,28,7.30
2013,05,02,01,29,7.30
2013,05,02,01,30,7.30
2013,05,02,01,31,7.20
2013,05,02,01,32,7.20
2013,05,02,01,33,7.20
2013,05,02,01,34,7.20
2013,05,02,01,35,7.20
2013,05,02,01,36,7.20
2013,05,02,01,37,7.20
2013,05,02,01,38,7.20
2013,05,02,01,39,7.20
2013,05,02,01,40,7.20
2013,05,02,01,41,7.20
2013,05,02,01,42,7.20
2013,05,02,01,43,7.20
2013,05,02,01,44,7.10
2013,05,02,01,45,7.10
2013,05,02,01,46,7.10
2013,05,02,01,47,7.10
2013,05,02,01,48,7.10
2013,05,02,01,49,7.10
2013,05,02,01,50,7.00
2013,05,02,01,51,7.00
2013,05,02,01,52,7.00
2013,05,02,01,53,7.00
2013,05,02,01,54,7.00
2013,05,02,01,55,6.90
2013,05,02,01,56,6.90
2013,05,02,01,57,6.90
2013,05,02,01,58,6.90
2013,05,02,01,59,6.90
2013,05,02,02,00,6.80
2013,05,02,02,01,6.80
2013,05,02,02,02,6.80
2013,05,02,02,03,6.80
2013,05,02,02,04,6.80
2013,05,02,02,05,6.80
2013,05,02,02,06,6.80
2013,05,02,02,07,6.80
2013,05,02,02,08,6.70
2013,05,02,02,09,6.70
2013,05,02,02,10,6.70
2013,05,02,02,11,6.70
2013,05,02,02,12,6.70
2013,05,02,02,13,6.70
2013,05,02,02,14,6.60
2013,05,02,02,15,6.60
2013,05,02,02,16,6.60
2013,05,02,02,17,6.60
2013,05,02,02,18,6.60
2013,05,02,02,19,6.60
2013,05,02,02,20,6.60
2013,05,02,02,21,6.60
2013,05,02,02,22,6.60
2013,05,02,02,23,6.60
2013,05,02,02,24,6.60
2013,05,02,02,25,6.50
2013,05,02,02,26,6.50
2013,05,02,02,27,6.50
2013,05,02,02,28,6.40
2013,05,02,02,29,6.40
2013,05,02,02,30,6.40
2013,05,02,02,31,6.40
2013,05,02,02,32,6.30
2013,05,02,02,33,6.30
2013,05,02,02,34,6.30
2013,05,02,02,35,6.30
2013,05,02,02,36,6.30
2013,05,02,02,37,6.30
2013,05,02,02,38,6.30
2013,05,02,02,39,6.30
2013,05,02,02,40,6.30
2013,05,02,02,41,6.30
2013,05,02,02,42,6.30
2013,05,02,02,43,6.30
2013,05,02,02,44,6.30
2013,05,02,02,45,6.30
2013,05,02,02,46,6.30
2013,05,02,02,47,6.30
2013,05,02,02,48,6.30
2013,05,02,02,49,6.30
2013,05,02,02,50,6.30
2013,05,02,02,51,6.30
2013,05,02,02,52,6.30
2013,05,02,02,53,6.30
2013,05,02,02,54,6.20
2013,05,02,02,55,6.20
2013,05,02,02,56,6.20
2013,05,02,02,57,6.20
2013,05,02,02,58,6.20
2013,05,02,02,59,6.20
2013,05,02,03,00,6.20
2013,05,02,03,01,6.20
2013,05,02,03,02,6.20
2013,05,02,03,03,6.20
2013,05,02,03,06,6.20
2013,05,02,03,07,6.20
2013,05,02,03,08,6.10
2013,05,02,03,09,6.10
2013,05,02,03,10,6.10
2013,05,02,03,11,6.10
2013,05,02,03,12,6.10
2013,05,02,03,13,6.10
2013,05,02,03,14,6.10
2013,05,02,03,15,6.00
2013,05,02,03,16,6.00
2013,05,02,03,17,6.00
2013,05,02,03,18,6.00
2013,05,02,03,19,6.00
2013,05,02,03,20,6.00
2013,05,02,03,21,6.00
2013,05,02,03,22,6.00
2013,05,02,03,23,5.90
2013,05,02,03,24,5.90
2013,05,02,03,25,5.90
2013,05,02,03,26,5.90
2013,05,02,03,27,5.90
2013,05,02,03,28,5.90
2013,05,02,03,29,5.90
2013,05,02,03,30,5.90
2013,05,02,03,31,5.90
2013,05,02,03,32,5.90
2013,05,02,03,33,5.90
2013,05,02,03,34,5.90
2013,05,02,03,35,5.80
2013,05,02,03,36,5.80
2013,05,02,03,37,5.80
2013,05,02,03,38,5.80
2013,05,02,03,39,5.80
2013,05,02,03,40,5.80
2013,05,02,03,41,5.80
2013,05,02,03,42,5.90
2013,05,02,03,43,5.80
2013,05,02,03,44,5.80
2013,05,02,03,45,5.80
2013,05,02,03,46,5.80
2013,05,02,03,47,5.80
2013,05,02,03,48,5.80
2013,05,02,03,49,5.80
2013,05,02,03,50,5.80
2013,05,02,03,51,5.80
2013,05,02,03,52,5.80
2013,05,02,03,53,5.80
2013,05,02,03,54,5.80
2013,05,02,03,55,5.80
2013,05,02,03,56,5.80
2013,05,02,03,57,5.80
2013,05,02,03,58,5.80
2013,05,02,03,59,5.70
2013,05,02,04,00,5.70
2013,05,02,04,01,5.70
2013,05,02,04,02,5.70
2013,05,02,04,03,5.70
2013,05,02,04,04,5.70
2013,05,02,04,05,5.70
2013,05,02,04,06,5.60
2013,05,02,04,07,5.60
2013,05,02,04,08,5.60
2013,05,02,04,09,5.60
2013,05,02,04,10,5.50
2013,05,02,04,11,5.50
2013,05,02,04,12,5.50
2013,05,02,04,13,5.40
2013,05,02,04,14,5.40
2013,05,02,04,15,5.40
2013,05,02,04,16,5.40
2013,05,02,04,17,5.40
2013,05,02,04,18,5.40
2013,05,02,04,19,5.40
2013,05,02,04,20,5.40
2013,05,02,04,21,5.40
2013,05,02,04,22,5.40
2013,05,02,04,23,5.40
2013,05,02,04,24,5.40
2013,05,02,04,25,5.40
2013,05,02,04,26,5.40
2013,05,02,04,27,5.40
2013,05,02,04,28,5.40
2013,05,02,04,29,5.30
2013,05,02,04,30,5.30
2013,05,02,04,31,5.30
2013,05,02,04,32,5.30
2013,05,02,04,33,5.30
2013,05,02,04,34,5.30
2013,05,02,04,35,5.30
2013,05,02,04,36,5.30
2013,05,02,04,37,5.30
2013,05,02,04,38,5.30
2013,05,02,04,39,5.30
2013,05,02,04,40,5.30
2013,05,02,04,41,5.30
2013,05,02,04,42,5.30
2013,05,02,04,43,5.30
2013,05,02,04,44,5.30
2013,05,02,04,45,5.30
2013,05,02,04,46,5.30
2013,05,02,04,47,5.30
2013,05,02,04,48,5.30
2013,05,02,04,49,5.30
2013,05,02,04,50,5.30
2013,05,02,04,51,5.30
2013,05,02,04,52,5.30
2013,05,02,04,53,5.30
2013,05,02,04,54,5.30
2013,05,02,04,55,5.30
2013,05,02,04,56,5.30
2013,05,02,04,57,5.30
2013,05,02,04,58,5.30
2013,05,02,04,59,5.30
2013,05,02,05,00,5.30
2013,05,02,05,01,5.30
2013,05,02,05,02,5.30
2013,05,02,05,03,5.30
2013,05,02,05,04,5.30
2013,05,02,05,05,5.20
2013,05,02,05,06,5.20
2013,05,02,05,07,5.20
2013,05,02,05,08,5.10
2013,05,02,05,09,5.10
2013,05,02,05,10,5.00
2013,05,02,05,11,5.00
2013,05,02,05,12,4.90
2013,05,02,05,13,4.90
2013,05,02,05,14,4.90
2013,05,02,05,15,4.80
2013,05,02,05,16,4.80
2013,05,02,05,17,4.80
2013,05,02,05,18,4.80
2013,05,02,05,19,4.80
2013,05,02,05,20,4.80
2013,05,02,05,21,4.80
2013,05,02,05,22,4.80
2013,05,02,05,23,4.80
2013,05,02,05,24,4.80
2013,05,02,05,25,4.80
2013,05,02,05,26,4.80
2013,05,02,05,27,4.80
2013,05,02,05,28,4.80
2013,05,02,05,29,4.80
2013,05,02,05,30,4.80
2013,05,02,05,31,4.80
2013,05,02,05,32,4.80
2013,05,02,05,33,4.80
2013,05,02,05,34,4.90
2013,05,02,05,35,4.90
2013,05,02,05,36,4.90
2013,05,02,05,37,4.90
2013,05,02,05,38,4.80
2013,05,02,05,39,4.80
2013,05,02,05,40,4.80
2013,05,02,05,41,4.80
2013,05,02,05,42,4.80
2013,05,02,05,43,4.80
2013,05,02,05,44,4.80
2013,05,02,05,45,4.80
2013,05,02,05,46,4.80
2013,05,02,05,47,4.80
2013,05,02,05,48,4.70
2013,05,02,05,49,4.70
2013,05,02,05,50,4.70
2013,05,02,05,51,4.70
2013,05,02,05,52,4.70
2013,05,02,05,53,4.70
2013,05,02,05,54,4.70
2013,05,02,05,55,4.70
2013,05,02,05,56,4.70
2013,05,02,05,57,4.70
2013,05,02,05,58,4.70
2013,05,02,05,59,4.70
2013,05,02,06,00,4.70
2013,05,02,06,01,4.70
2013,05,02,06,02,4.70
2013,05,02,06,03,4.60
2013,05,02,06,04,4.70
2013,05,02,06,05,4.60
2013,05,02,06,06,4.60
2013,05,02,06,07,4.60
2013,05,02,06,08,4.60
2013,05,02,06,09,4.60
2013,05,02,06,10,4.60
2013,05,02,06,11,4.50
2013,05,02,06,12,4.50
2013,05,02,06,13,4.50
2013,05,02,06,14,4.50
2013,05,02,06,15,4.50
2013,05,02,06,16,4.50
2013,05,02,06,17,4.50
2013,05,02,06,18,4.50
2013,05,02,06,19,4.50
2013,05,02,06,20,4.60
2013,05,02,06,21,4.60
2013,05,02,06,22,4.60
2013,05,02,06,23,4.60
2013,05,02,06,24,4.60
2013,05,02,06,25,4.60
2013,05,02,06,26,4.60
2013,05,02,06,27,4.60
2013,05,02,06,28,4.60
2013,05,02,06,29,4.60
2013,05,02,06,30,4.60
2013,05,02,06,31,4.60
2013,05,02,06,32,4.60
2013,05,02,06,33,4.60
2013,05,02,06,34,4.60
2013,05,02,06,35,4.60
2013,05,02,06,36,4.60
2013,05,02,06,37,4.60
2013,05,02,06,38,4.70
2013,05,02,06,39,4.70
2013,05,02,06,40,4.70
2013,05,02,06,41,4.70
2013,05,02,06,42,4.70
2013,05,02,06,43,4.70
2013,05,02,06,44,4.70
2013,05,02,06,45,4.70
2013,05,02,06,46,4.70
2013,05,02,06,47,4.70
2013,05,02,06,48,4.70
2013,05,02,06,49,4.70
2013,05,02,06,50,4.70
2013,05,02,06,51,4.70
2013,05,02,06,52,4.70
2013,05,02,06,53,4.70
2013,05,02,06,54,4.70
2013,05,02,06,55,4.70
2013,05,02,06,56,4.70
2013,05,02,06,57,4.70
2013,05,02,06,58,4.70
2013,05,02,06,59,4.70
2013,05,02,07,00,4.70
2013,05,02,07,01,4.70
2013,05,02,07,02,4.80
2013,05,02,07,03,4.80
2013,05,02,07,04,4.80
2013,05,02,07,05,4.80
2013,05,02,07,06,4.80
2013,05,02,07,07,4.80
2013,05,02,07,08,4.80
2013,05,02,07,09,4.80
2013,05,02,07,10,4.90
2013,05,02,07,11,4.90
2013,05,02,07,12,4.90
2013,05,02,07,13,4.90
2013,05,02,07,14,5.00
2013,05,02,07,15,5.00
2013,05,02,07,16,5.10
2013,05,02,07,17,5.10
2013,05,02,07,18,5.10
2013,05,02,07,19,5.20
2013,05,02,07,20,5.20
2013,05,02,07,21,5.20
2013,05,02,07,22,5.30
2013,05,02,07,23,5.30
2013,05,02,07,24,5.40
2013,05,02,07,25,5.40
2013,05,02,07,26,5.50
2013,05,02,07,27,5.60
2013,05,02,07,28,5.60
2013,05,02,07,29,5.70
2013,05,02,07,30,5.80
2013,05,02,07,31,5.80
2013,05,02,07,32,5.90
2013,05,02,07,33,6.00
2013,05,02,07,34,6.00
2013,05,02,07,35,6.10
2013,05,02,07,36,6.20
2013,05,02,07,37,6.20
2013,05,02,07,38,6.30
2013,05,02,07,39,6.30
2013,05,02,07,40,6.40
2013,05,02,07,41,6.50
2013,05,02,07,42,6.50
2013,05,02,07,43,6.60
2013,05,02,07,44,6.70
2013,05,02,07,45,6.80
2013,05,02,07,46,6.80
2013,05,02,07,47,6.90
2013,05,02,07,48,7.00
2013,05,02,07,49,7.00
2013,05,02,07,50,7.10
2013,05,02,07,51,7.20
2013,05,02,07,52,7.30
2013,05,02,07,53,7.40
2013,05,02,07,54,7.40
2013,05,02,07,55,7.40
2013,05,02,07,56,7.40
2013,05,02,07,57,7.40
2013,05,02,07,58,7.40
2013,05,02,07,59,7.40
2013,05,02,08,00,7.40
2013,05,02,08,01,7.40
2013,05,02,08,02,7.40
2013,05,02,08,03,7.40
2013,05,02,08,04,7.50
2013,05,02,08,05,7.50
2013,05,02,08,06,7.60
2013,05,02,08,07,7.60
2013,05,02,08,08,7.70
2013,05,02,08,09,7.70
2013,05,02,08,10,7.80
2013,05,02,08,11,7.80
2013,05,02,08,12,7.90
2013,05,02,08,13,7.90
2013,05,02,08,14,7.90
2013,05,02,08,15,7.90
2013,05,02,08,16,7.90
2013,05,02,08,17,8.00
2013,05,02,08,18,8.00
2013,05,02,08,19,8.00
2013,05,02,08,20,8.00
2013,05,02,08,21,8.00
2013,05,02,08,22,8.10
2013,05,02,08,23,8.10
2013,05,02,08,24,8.10
2013,05,02,08,25,8.10
2013,05,02,08,26,8.20
2013,05,02,08,27,8.20
2013,05,02,08,28,8.20
2013,05,02,08,29,8.20
2013,05,02,08,30,8.20
2013,05,02,08,31,8.20
2013,05,02,08,32,8.20
2013,05,02,08,33,8.20
2013,05,02,08,34,8.30
2013,05,02,08,35,8.30
2013,05,02,08,36,8.40
2013,05,02,08,37,8.40
2013,05,02,08,38,8.50
2013,05,02,08,39,8.60
2013,05,02,08,40,8.60
2013,05,02,08,41,8.70
2013,05,02,08,42,8.70
2013,05,02,08,43,8.80
2013,05,02,08,44,8.80
2013,05,02,08,45,8.80
2013,05,02,08,46,8.80
2013,05,02,08,47,8.80
2013,05,02,08,48,8.90
2013,05,02,08,49,8.90
2013,05,02,08,50,8.90
2013,05,02,08,51,9.00
2013,05,02,08,52,9.00
2013,05,02,08,53,9.00
2013,05,02,08,54,9.10
2013,05,02,08,55,9.10
2013,05,02,08,56,9.20
2013,05,02,08,57,9.20
2013,05,02,08,58,9.20
2013,05,02,08,59,9.20
2013,05,02,09,00,9.20
2013,05,02,09,01,9.20
2013,05,02,09,02,9.30
2013,05,02,09,03,9.30
2013,05,02,09,04,9.30
2013,05,02,09,05,9.20
2013,05,02,09,06,9.30
2013,05,02,09,07,9.30
2013,05,02,09,08,9.30
2013,05,02,09,09,9.30
2013,05,02,09,10,9.30
2013,05,02,09,11,9.30
2013,05,02,09,12,9.30
2013,05,02,09,13,9.30
2013,05,02,09,14,9.30
2013,05,02,09,15,9.30
2013,05,02,09,16,9.40
2013,05,02,09,17,9.40
2013,05,02,09,18,9.50
2013,05,02,09,19,9.50
2013,05,02,09,20,9.60
2013,05,02,09,21,9.60
2013,05,02,09,22,9.60
2013,05,02,09,23,9.70
2013,05,02,09,24,9.80
2013,05,02,09,25,9.80
2013,05,02,09,26,9.80
2013,05,02,09,27,9.80
2013,05,02,09,28,9.90
2013,05,02,09,29,9.90
2013,05,02,09,30,9.90
2013,05,02,09,31,9.90
2013,05,02,09,32,10.00
2013,05,02,09,33,10.00
2013,05,02,09,34,10.10
2013,05,02,09,35,10.10
2013,05,02,09,36,10.10
2013,05,02,09,37,10.20
2013,05,02,09,38,10.20
2013,05,02,09,39,10.30
2013,05,02,09,40,10.30
2013,05,02,09,41,10.40
2013,05,02,09,42,10.40
2013,05,02,09,43,10.40
2013,05,02,09,44,10.50
2013,05,02,09,45,10.60
2013,05,02,09,46,10.60
2013,05,02,09,47,10.70
2013,05,02,09,48,10.70
2013,05,02,09,49,10.70
2013,05,02,09,50,10.80
2013,05,02,09,51,10.80
2013,05,02,09,52,10.80
2013,05,02,09,53,10.80
2013,05,02,09,54,10.90
2013,05,02,09,55,10.90
2013,05,02,09,56,10.90
2013,05,02,09,57,10.80
2013,05,02,09,58,10.80
2013,05,02,09,59,10.80
2013,05,02,10,00,10.80
2013,05,02,10,01,10.80
2013,05,02,10,02,10.90
2013,05,02,10,03,10.90
2013,05,02,10,04,10.90
2013,05,02,10,05,11.00
2013,05,02,10,06,11.00
2013,05,02,10,07,11.00
2013,05,02,10,08,11.10
2013,05,02,10,09,11.10
2013,05,02,10,10,11.20
2013,05,02,10,11,11.20
2013,05,02,10,12,11.20
2013,05,02,10,13,11.30
2013,05,02,10,14,11.30
2013,05,02,10,15,11.30
2013,05,02,10,16,11.40
2013,05,02,10,17,11.40
2013,05,02,10,18,11.40
2013,05,02,10,19,11.40
2013,05,02,10,20,11.40
2013,05,02,10,21,11.40
2013,05,02,10,22,11.40
2013,05,02,10,23,11.40
2013,05,02,10,24,11.40
2013,05,02,10,25,11.40
2013,05,02,10,26,11.40
2013,05,02,10,27,11.40
2013,05,02,10,28,11.40
2013,05,02,10,29,11.50
2013,05,02,10,30,11.50
2013,05,02,10,31,11.60
2013,05,02,10,32,11.70
2013,05,02,10,33,11.70
2013,05,02,10,34,11.80
2013,05,02,10,35,11.80
2013,05,02,10,36,11.80
2013,05,02,10,37,11.80
2013,05,02,10,38,11.80
2013,05,02,10,39,11.80
2013,05,02,10,40,11.80
2013,05,02,10,41,11.80
2013,05,02,10,42,11.80
2013,05,02,10,43,11.90
2013,05,02,10,44,11.90
2013,05,02,10,45,11.90
2013,05,02,10,46,12.00
2013,05,02,10,47,12.00
2013,05,02,10,48,12.10
2013,05,02,10,49,12.10
2013,05,02,10,50,12.10
2013,05,02,10,51,12.20
2013,05,02,10,52,12.20
2013,05,02,10,53,12.30
2013,05,02,10,54,12.30
2013,05,02,10,55,12.30
2013,05,02,10,56,12.30
2013,05,02,10,57,12.30
2013,05,02,10,58,12.30
2013,05,02,10,59,12.30
2013,05,02,11,00,12.30
2013,05,02,11,01,12.30
2013,05,02,11,02,12.30
2013,05,02,11,03,12.30
2013,05,02,11,04,12.30
2013,05,02,11,05,12.30
2013,05,02,11,06,12.40
2013,05,02,11,07,12.40
2013,05,02,11,08,12.40
2013,05,02,11,09,12.40
2013,05,02,11,10,12.40
2013,05,02,11,11,12.50
2013,05,02,11,12,12.50
2013,05,02,11,13,12.60
2013,05,02,11,14,12.70
2013,05,02,11,15,12.80
2013,05,02,11,16,12.80
2013,05,02,11,17,12.80
2013,05,02,11,18,12.80
2013,05,02,11,19,12.80
2013,05,02,11,20,12.80
2013,05,02,11,21,12.80
2013,05,02,11,22,12.80
2013,05,02,11,23,12.80
2013,05,02,11,24,12.80
2013,05,02,11,25,12.80
2013,05,02,11,26,12.80
2013,05,02,11,27,12.80
2013,05,02,11,28,12.90
2013,05,02,11,29,12.90
2013,05,02,11,30,13.00
2013,05,02,11,31,13.00
2013,05,02,11,32,13.10
2013,05,02,11,33,13.20
2013,05,02,11,34,13.20
2013,05,02,11,35,13.20
2013,05,02,11,36,13.30
2013,05,02,11,37,13.30
2013,05,02,11,38,13.30
2013,05,02,11,39,13.30
2013,05,02,11,40,13.30
2013,05,02,11,41,13.30
2013,05,02,11,42,13.30
2013,05,02,11,43,13.30
2013,05,02,11,44,13.30
2013,05,02,11,45,13.40
2013,05,02,11,46,13.40
2013,05,02,11,47,13.40
2013,05,02,11,48,13.50
2013,05,02,11,49,13.50
2013,05,02,11,50,13.60
2013,05,02,11,51,13.50
2013,05,02,11,52,13.50
2013,05,02,11,53,13.40
2013,05,02,11,54,13.40
2013,05,02,11,55,13.40
2013,05,02,11,56,13.40
2013,05,02,11,57,13.40
2013,05,02,11,58,13.50
2013,05,02,11,59,13.50
2013,05,02,12,00,13.60
2013,05,02,12,01,13.60
2013,05,02,12,02,13.60
2013,05,02,12,03,13.70
2013,05,02,12,04,13.70
2013,05,02,12,05,13.70
2013,05,02,12,06,13.70
2013,05,02,12,07,13.70
2013,05,02,12,08,13.80
2013,05,02,12,09,13.80
2013,05,02,12,10,13.80
2013,05,02,12,11,13.90
2013,05,02,12,12,14.00
2013,05,02,12,13,14.10
2013,05,02,12,14,14.20
2013,05,02,12,15,14.20
2013,05,02,12,16,14.20
2013,05,02,12,17,14.20
2013,05,02,12,18,14.20
2013,05,02,12,19,14.20
2013,05,02,12,20,14.20
2013,05,02,12,21,14.20
2013,05,02,12,22,14.20
2013,05,02,12,23,14.20
2013,05,02,12,24,14.10
2013,05,02,12,25,14.10
2013,05,02,12,26,14.10
2013,05,02,12,27,14.10
2013,05,02,12,28,14.10
2013,05,02,12,29,14.10
2013,05,02,12,30,14.10
2013,05,02,12,31,14.20
2013,05,02,12,32,14.20
2013,05,02,12,33,14.20
2013,05,02,12,34,14.20
2013,05,02,12,35,14.20
2013,05,02,12,36,14.30
2013,05,02,12,37,14.30
2013,05,02,12,38,14.30
2013,05,02,12,39,14.40
2013,05,02,12,40,14.40
2013,05,02,12,41,14.40
2013,05,02,12,42,14.40
2013,05,02,12,43,14.40
2013,05,02,12,44,14.40
2013,05,02,12,45,14.40
2013,05,02,12,46,14.40
2013,05,02,12,47,14.40
2013,05,02,12,48,14.40
2013,05,02,12,49,14.50
2013,05,02,12,50,14.60
2013,05,02,12,51,14.70
2013,05,02,12,52,14.70
2013,05,02,12,53,14.80
2013,05,02,12,54,14.80
2013,05,02,12,55,14.70
2013,05,02,12,56,14.70
2013,05,02,12,57,14.70
2013,05,02,12,58,14.70
2013,05,02,12,59,14.80
2013,05,02,13,00,14.80
2013,05,02,13,01,14.90
2013,05,02,13,02,14.90
2013,05,02,13,03,15.00
2013,05,02,13,04,15.00
2013,05,02,13,05,15.10
2013,05,02,13,06,15.20
2013,05,02,13,07,15.20
2013,05,02,13,08,15.30
2013,05,02,13,09,15.30
2013,05,02,13,10,15.30
2013,05,02,13,11,15.40
2013,05,02,13,12,15.40
2013,05,02,13,13,15.50
2013,05,02,13,14,15.60
2013,05,02,13,15,15.60
2013,05,02,13,16,15.70
2013,05,02,13,17,15.70
2013,05,02,13,18,15.70
2013,05,02,13,19,15.70
2013,05,02,13,20,15.70
2013,05,02,13,21,15.70
2013,05,02,13,22,15.70
2013,05,02,13,23,15.70
2013,05,02,13,24,15.70
2013,05,02,13,25,15.70
2013,05,02,13,26,15.70
2013,05,02,13,27,15.70
2013,05,02,13,28,15.70
2013,05,02,13,29,15.70
2013,05,02,13,30,15.70
2013,05,02,13,31,15.70
2013,05,02,13,32,15.70
2013,05,02,13,33,15.80
2013,05,02,13,34,15.80
2013,05,02,13,35,15.90
2013,05,02,13,36,15.90
2013,05,02,13,37,16.00
2013,05,02,13,38,16.00
2013,05,02,13,39,16.00
2013,05,02,13,40,16.00
2013,05,02,13,41,16.00
2013,05,02,13,42,16.00
2013,05,02,13,43,16.00
2013,05,02,13,44,16.00
2013,05,02,13,45,16.00
2013,05,02,13,46,16.10
2013,05,02,13,47,16.00
2013,05,02,13,48,16.00
2013,05,02,13,49,15.90
2013,05,02,13,50,15.90
2013,05,02,13,51,15.80
2013,05,02,13,52,15.90
2013,05,02,13,53,15.90
2013,05,02,13,54,15.90
2013,05,02,13,55,15.90
2013,05,02,13,56,15.90
2013,05,02,13,57,16.00
2013,05,02,13,58,16.00
2013,05,02,13,59,16.00
2013,05,02,14,00,16.10
2013,05,02,14,01,16.10
2013,05,02,14,02,16.10
2013,05,02,14,03,16.10
2013,05,02,14,04,16.20
2013,05,02,14,05,16.20
2013,05,02,14,06,16.20
2013,05,02,14,07,16.30
2013,05,02,14,08,16.40
2013,05,02,14,09,16.40
2013,05,02,14,10,16.40
2013,05,02,14,11,16.40
2013,05,02,14,12,16.40
2013,05,02,14,13,16.40
2013,05,02,14,14,16.40
2013,05,02,14,15,16.40
2013,05,02,14,16,16.50
2013,05,02,14,17,16.40
2013,05,02,14,18,16.40
2013,05,02,14,19,16.40
2013,05,02,14,20,16.30
2013,05,02,14,21,16.30
2013,05,02,14,22,16.30
2013,05,02,14,23,16.30
2013,05,02,14,24,16.30
2013,05,02,14,25,16.30
2013,05,02,14,26,16.30
2013,05,02,14,27,16.30
2013,05,02,14,28,16.40
2013,05,02,14,29,16.40
2013,05,02,14,30,16.40
2013,05,02,14,31,16.50
2013,05,02,14,32,16.60
2013,05,02,14,33,16.70
2013,05,02,14,34,16.70
2013,05,02,14,35,16.70
2013,05,02,14,36,16.80
2013,05,02,14,37,16.80
2013,05,02,14,38,16.90
2013,05,02,14,39,17.00
2013,05,02,14,40,17.00
2013,05,02,14,41,17.00
2013,05,02,14,42,17.00
2013,05,02,14,43,17.00
2013,05,02,14,44,16.90
2013,05,02,14,45,16.80
2013,05,02,14,46,16.80
2013,05,02,14,47,16.80
2013,05,02,14,48,16.80
2013,05,02,14,49,16.80
2013,05,02,14,50,16.90
2013,05,02,14,51,16.90
2013,05,02,14,52,16.90
2013,05,02,14,53,17.00
2013,05,02,14,54,16.90
2013,05,02,14,55,16.90
2013,05,02,14,56,16.90
2013,05,02,14,57,16.90
2013,05,02,14,58,16.80
2013,05,02,14,59,16.80
2013,05,02,15,00,16.80
2013,05,02,15,01,16.80
2013,05,02,15,02,16.80
2013,05,02,15,03,16.80
2013,05,02,15,04,16.80
2013,05,02,15,05,16.80
2013,05,02,15,06,16.80
2013,05,02,15,07,16.80
2013,05,02,15,08,16.80
2013,05,02,15,09,16.70
2013,05,02,15,10,16.60
2013,05,02,15,11,16.60
2013,05,02,15,12,16.60
2013,05,02,15,13,16.60
2013,05,02,15,14,16.50
2013,05,02,15,15,16.50
2013,05,02,15,16,16.50
2013,05,02,15,17,16.50
2013,05,02,15,18,16.40
2013,05,02,15,19,16.40
2013,05,02,15,20,16.30
2013,05,02,15,21,16.30
2013,05,02,15,22,16.20
2013,05,02,15,23,16.20
2013,05,02,15,24,16.20
2013,05,02,15,25,16.20
2013,05,02,15,26,16.20
2013,05,02,15,27,16.20
2013,05,02,15,28,16.20
2013,05,02,15,29,16.30
2013,05,02,15,30,16.20
2013,05,02,15,31,16.20
2013,05,02,15,32,16.20
2013,05,02,15,33,16.10
2013,05,02,15,34,16.10
2013,05,02,15,35,16.10
2013,05,02,15,36,16.10
2013,05,02,15,37,16.10
2013,05,02,15,38,16.20
2013,05,02,15,39,16.20
2013,05,02,15,40,16.20
2013,05,02,15,41,16.10
2013,05,02,15,42,16.10
2013,05,02,15,43,16.10
2013,05,02,15,44,16.10
2013,05,02,15,45,16.10
2013,05,02,15,46,16.10
2013,05,02,15,47,16.10
2013,05,02,15,48,16.10
2013,05,02,15,49,16.10
2013,05,02,15,50,16.10
2013,05,02,15,51,16.10
2013,05,02,15,52,16.00
2013,05,02,15,53,16.00
2013,05,02,15,54,15.90
2013,05,02,15,55,15.80
2013,05,02,15,56,15.80
2013,05,02,15,57,15.80
2013,05,02,15,58,15.70
2013,05,02,15,59,15.70
2013,05,02,16,00,15.70
2013,05,02,16,01,15.70
2013,05,02,16,02,15.70
2013,05,02,16,03,15.70
2013,05,02,16,04,15.80
2013,05,02,16,05,15.80
2013,05,02,16,06,15.70
2013,05,02,16,07,15.70
2013,05,02,16,08,15.80
2013,05,02,16,09,15.80
2013,05,02,16,10,15.80
2013,05,02,16,11,15.90
2013,05,02,16,12,15.90
2013,05,02,16,13,15.90
2013,05,02,16,14,15.90
2013,05,02,16,15,15.90
2013,05,02,16,16,15.90
2013,05,02,16,17,16.00
2013,05,02,16,18,16.00
2013,05,02,16,19,16.00
2013,05,02,16,20,16.10
2013,05,02,16,21,16.10
2013,05,02,16,22,16.20
2013,05,02,16,23,16.20
2013,05,02,16,24,16.20
2013,05,02,16,25,16.20
2013,05,02,16,26,16.30
2013,05,02,16,27,16.30
2013,05,02,16,28,16.40
2013,05,02,16,29,16.50
2013,05,02,16,30,16.50
2013,05,02,16,31,16.60
2013,05,02,16,32,16.60
2013,05,02,16,33,16.60
2013,05,02,16,34,16.50
2013,05,02,16,35,16.50
2013,05,02,16,36,16.50
2013,05,02,16,37,16.50
2013,05,02,16,38,16.60
2013,05,02,16,39,16.60
2013,05,02,16,40,16.60
2013,05,02,16,41,16.60
2013,05,02,16,42,16.50
2013,05,02,16,43,16.60
2013,05,02,16,44,16.60
2013,05,02,16,45,16.60
2013,05,02,16,46,16.70
2013,05,02,16,47,16.70
2013,05,02,16,48,16.70
2013,05,02,16,49,16.80
2013,05,02,16,50,16.80
2013,05,02,16,51,16.80
2013,05,02,16,52,16.80
2013,05,02,16,53,16.80
2013,05,02,16,54,16.80
2013,05,02,16,55,16.80
2013,05,02,16,56,16.80
2013,05,02,16,57,16.90
2013,05,02,16,58,16.90
2013,05,02,16,59,16.90
2013,05,02,17,00,17.00
2013,05,02,17,01,17.00
2013,05,02,17,02,17.10
2013,05,02,17,03,17.20
2013,05,02,17,04,17.20
2013,05,02,17,05,17.20
2013,05,02,17,06,17.30
2013,05,02,17,07,17.30
2013,05,02,17,08,17.30
2013,05,02,17,09,17.30
2013,05,02,17,10,17.30
2013,05,02,17,11,17.30
2013,05,02,17,12,17.20
2013,05,02,17,13,17.20
2013,05,02,17,14,17.20
2013,05,02,17,15,17.30
2013,05,02,17,16,17.30
2013,05,02,17,17,17.40
2013,05,02,17,18,17.40
2013,05,02,17,19,17.40
2013,05,02,17,20,17.40
2013,05,02,17,21,17.40
2013,05,02,17,22,17.40
2013,05,02,17,23,17.40
2013,05,02,17,24,17.40
2013,05,02,17,25,17.50
2013,05,02,17,26,17.50
2013,05,02,17,27,17.50
2013,05,02,17,28,17.50
2013,05,02,17,29,17.60
2013,05,02,17,30,17.60
2013,05,02,17,31,17.60
2013,05,02,17,32,17.60
2013,05,02,17,33,17.60
2013,05,02,17,34,17.60
2013,05,02,17,35,17.60
2013,05,02,17,36,17.60
2013,05,02,17,37,17.60
2013,05,02,17,38,17.60
2013,05,02,17,39,17.60
2013,05,02,17,40,17.60
2013,05,02,17,41,17.60
2013,05,02,17,42,17.60
2013,05,02,17,43,17.60
2013,05,02,17,44,17.50
2013,05,02,17,45,17.50
2013,05,02,17,46,17.40